Change the Weather History Date:

Saturday, January 5, 2013

  Actual Average Record
Temperature  
Mean Temperature 20 °F -  
Max Temperature 33 °F 31 °F 51 °F (2012)
Min Temperature 8 °F 12 °F -20 °F (1999)
Degree Days  
Heating Degree Days 44    
Moisture  
Dew Point 13 °F    
Average Humidity 77    
Maximum Humidity 93    
Minimum Humidity 56    
Precipitation  
Precipitation 0.00 in - - ()
Sea Level Pressure  
Sea Level Pressure 29.99 in    
Wind  
Wind Speed 2 mph (WSW)    
Max Wind Speed 12 mph    
Max Gust Speed 18 mph    
Visibility 10 miles    
Events      
Averages and records for this station are not official NWS values.
T = Trace of Precipitation, MM = Missing Value Source: NWS Daily Summary

Daily Weather History Graph

Daily Weather History Graph

Search for Another Location

Airport or City:

Trip Planner

Search our weather history database for the weather conditions in past years. The results will help you decide how hot, cold, wet, or windy it might be!

Date:

Astronomy

Jan. 05, 2013 Rise Set
Actual Time 7:41 AM CST 4:43 PM CST
Civil Twilight 7:08 AM CST 5:16 PM CST
Nautical Twilight 6:32 AM CST 5:52 PM CST
Astronomical Twilight 5:57 AM CST 6:27 PM CST
Moon 12:41 AM CST (1/5) 11:39 AM CST (1/5)
Length of Visible Light 10h 07m
Length of Day
9h 01m
Last Quarter, 44% of the Moon is Illuminated
Jan 5
Last Quarter
Jan 11
New
Jan 18
First Quarter
Jan 26
Full
Feb 3
Last Quarter

Hourly Weather History & Observations

Time (CST) Temp. Windchill Dew Point Humidity Pressure Visibility Wind Dir Wind Speed Gust Speed Precip Events Conditions
12:14 AM 12.2 °F - 10.4 °F 92% 30.14 in 10.0 mi Calm Calm - N/A   Clear
12:34 AM 12.2 °F - 10.4 °F 92% 30.12 in 10.0 mi Calm Calm - N/A   Clear
12:54 AM 10.4 °F - 8.6 °F 92% 30.12 in 10.0 mi Calm Calm - N/A   Clear
1:13 AM 12.2 °F - 8.6 °F 85% 30.14 in 10.0 mi Calm Calm - N/A   Clear
1:34 AM 8.6 °F - 5.0 °F 85% 30.15 in 10.0 mi Calm Calm - N/A   Clear
1:54 AM 8.6 °F - 5.0 °F 85% 30.17 in 10.0 mi Calm Calm - N/A   Clear
2:13 AM 8.6 °F - 5.0 °F 85% 30.17 in 10.0 mi Calm Calm - N/A   Clear
2:34 AM 10.4 °F - 6.8 °F 85% 30.16 in 10.0 mi Calm Calm - N/A   Clear
2:54 AM 10.4 °F - 8.6 °F 92% 30.14 in 10.0 mi Calm Calm - N/A   Clear
3:13 AM 8.6 °F - 5.0 °F 85% 30.12 in 10.0 mi Calm Calm - N/A   Clear
3:34 AM 8.6 °F - 5.0 °F 85% 30.12 in 10.0 mi Calm Calm - N/A   Clear
3:54 AM 8.6 °F - 5.0 °F 85% 30.11 in 10.0 mi Calm Calm - N/A   Clear
4:14 AM 10.4 °F - 6.8 °F 85% 30.11 in 10.0 mi Calm Calm - N/A   Clear
4:34 AM 8.6 °F - 3.2 °F 79% 30.09 in 10.0 mi Calm Calm - N/A   Clear
4:53 AM 8.6 °F - 5.0 °F 85% 30.09 in 10.0 mi Calm Calm - N/A   Clear
5:14 AM 10.4 °F 2.2 °F 8.6 °F 92% 30.07 in 10.0 mi SSE 4.6 mph - N/A   Clear
5:33 AM 10.4 °F 4.0 °F 8.6 °F 92% 30.06 in 10.0 mi SE 3.5 mph - N/A   Clear
5:54 AM 10.4 °F - 8.6 °F 92% 30.06 in 10.0 mi Calm Calm - N/A   Clear
6:14 AM 8.6 °F - 5.0 °F 85% 30.08 in 10.0 mi Calm Calm - N/A   Clear
6:33 AM 8.6 °F - 5.0 °F 85% 30.07 in 10.0 mi Calm Calm - N/A   Clear
7:14 AM 8.6 °F - 5.0 °F 85% 30.07 in 10.0 mi Calm Calm - N/A   Clear
7:33 AM 8.6 °F - 5.0 °F 85% 30.06 in 10.0 mi Calm Calm - N/A   Clear
7:54 AM 8.6 °F - 5.0 °F 85% 30.05 in 10.0 mi Calm Calm - N/A   Clear
8:14 AM 8.6 °F - 5.0 °F 85% 30.06 in 10.0 mi Calm Calm - N/A   Clear
8:34 AM 8.6 °F - 5.0 °F 85% 30.06 in 10.0 mi Calm Calm - N/A   Clear
8:54 AM 12.2 °F - 10.4 °F 92% 30.04 in 7.0 mi Calm Calm - N/A   Clear
9:13 AM 12.2 °F 4.3 °F 10.4 °F 92% 30.03 in 7.0 mi SSE 4.6 mph - N/A   Clear
9:54 AM 15.8 °F 7.2 °F 14.0 °F 93% 30.02 in 7.0 mi SE 5.8 mph - N/A   Clear
10:13 AM 17.6 °F 12.3 °F 14.0 °F 86% 30.01 in 7.0 mi SE 3.5 mph - N/A   Clear
10:54 AM 26.6 °F 18.2 °F 21.2 °F 80% 29.98 in 10.0 mi SSW 8.1 mph - N/A   Clear
11:13 AM 32.0 °F 24.8 °F 19.4 °F 60% 29.96 in 10.0 mi SSW 8.1 mph - N/A   Clear
11:34 AM 32.0 °F 24.8 °F 19.4 °F 60% 29.94 in 10.0 mi SSW 8.1 mph - N/A   Clear
11:53 AM 32.0 °F 28.7 °F 19.4 °F 60% 29.93 in 10.0 mi SSW 3.5 mph - N/A   Clear
12:14 PM 32.0 °F 28.7 °F 19.4 °F 60% 29.91 in 10.0 mi SW 3.5 mph - N/A   Clear
12:34 PM 32.0 °F 23.0 °F 19.4 °F 60% 29.90 in 10.0 mi SW 11.5 mph 18.4 mph N/A   Clear
12:53 PM 32.0 °F 28.7 °F 19.4 °F 60% 29.90 in 10.0 mi SW 3.5 mph - N/A   Clear
1:14 PM 33.8 °F 28.6 °F 19.4 °F 56% 29.90 in 10.0 mi SW 5.8 mph - N/A   Clear
1:34 PM 32.0 °F 24.2 °F 21.2 °F 64% 29.89 in 10.0 mi SSW 9.2 mph 17.3 mph N/A   Clear
1:53 PM 32.0 °F 24.8 °F 19.4 °F 60% 29.89 in 10.0 mi SW 8.1 mph 17.3 mph N/A   Clear
2:14 PM 32.0 °F 24.8 °F 19.4 °F 60% 29.88 in 10.0 mi SW 8.1 mph - N/A   Clear
2:34 PM 32.0 °F 24.2 °F 21.2 °F 64% 29.88 in 10.0 mi SSW 9.2 mph - N/A   Clear
2:53 PM 32.0 °F 28.7 °F 21.2 °F 64% 29.88 in 10.0 mi West 3.5 mph - N/A   Clear
3:14 PM 32.0 °F - 23.0 °F 69% 29.88 in 10.0 mi Calm Calm - N/A   Clear
3:34 PM 30.2 °F 25.4 °F 21.2 °F 69% 29.87 in 10.0 mi SSW 4.6 mph - N/A   Clear
3:53 PM 30.2 °F 26.7 °F 21.2 °F 69% 29.87 in 10.0 mi SW 3.5 mph - N/A   Clear
4:14 PM 30.2 °F 22.6 °F 21.2 °F 69% 29.88 in 10.0 mi WSW 8.1 mph - N/A   Clear
4:54 PM 30.2 °F 23.4 °F 21.2 °F 69% 29.88 in 10.0 mi WSW 6.9 mph - N/A   Clear
5:14 PM 28.4 °F 21.2 °F 21.2 °F 74% 29.88 in 10.0 mi WSW 6.9 mph - N/A   Clear
5:34 PM 28.4 °F 22.2 °F 21.2 °F 74% 29.88 in 10.0 mi West 5.8 mph - N/A   Scattered Clouds
5:54 PM 28.4 °F 23.3 °F 21.2 °F 74% 29.89 in 10.0 mi West 4.6 mph - N/A   Scattered Clouds
6:14 PM 28.4 °F 22.2 °F 21.2 °F 74% 29.89 in 10.0 mi WSW 5.8 mph - N/A   Clear
6:34 PM 26.6 °F - 19.4 °F 74% 29.91 in 10.0 mi Calm Calm - N/A   Clear
6:54 PM 26.6 °F - 19.4 °F 74% 29.91 in 10.0 mi Calm Calm - N/A   Mostly Cloudy
7:14 PM 26.6 °F 20.0 °F 17.6 °F 69% 29.92 in 10.0 mi WNW 5.8 mph - N/A   Scattered Clouds
7:54 PM 23.0 °F 13.1 °F 15.8 °F 74% 29.92 in 10.0 mi WNW 9.2 mph - N/A   Clear
8:14 PM 23.0 °F 13.1 °F 15.8 °F 74% 29.94 in 10.0 mi NW 9.2 mph - N/A   Clear
8:34 PM 23.0 °F 13.9 °F 14.0 °F 68% 29.94 in 10.0 mi WNW 8.1 mph - N/A   Clear
8:54 PM 23.0 °F 17.0 °F 14.0 °F 68% 29.93 in 10.0 mi WNW 4.6 mph - N/A   Clear
9:14 PM 21.2 °F 13.6 °F 14.0 °F 74% 29.93 in 10.0 mi WNW 5.8 mph - N/A   Clear
9:34 PM 21.2 °F 12.6 °F 14.0 °F 74% 29.94 in 10.0 mi WNW 6.9 mph - N/A   Clear
9:54 PM 21.2 °F 12.6 °F 14.0 °F 74% 29.95 in 10.0 mi WNW 6.9 mph - N/A   Clear
10:14 PM 21.2 °F 11.7 °F 14.0 °F 74% 29.96 in 10.0 mi WNW 8.1 mph - N/A   Clear
10:34 PM 19.4 °F 10.4 °F 12.2 °F 74% 29.96 in 10.0 mi WNW 6.9 mph - N/A   Clear
10:54 PM 19.4 °F 11.5 °F 12.2 °F 74% 29.97 in 10.0 mi WNW 5.8 mph - N/A   Clear
11:14 PM 19.4 °F 11.5 °F 12.2 °F 74% 29.97 in 10.0 mi WNW 5.8 mph - N/A   Clear
11:34 PM 19.4 °F 11.5 °F 12.2 °F 74% 29.97 in 10.0 mi WNW 5.8 mph - N/A   Clear
11:54 PM 19.4 °F 10.4 °F 12.2 °F 74% 29.98 in 10.0 mi WNW 6.9 mph - N/A   Clear